sat.trackr.live / text

‹ back to catalog

USA 270

NORAD 41744 · 2016-052A

PAYLOAD ACTIVE UNKNOWN

§ Identity

Operator
Country
US
Launch date
2016-08-19
Launch site
AFETR
Launch vehicle
Mass (kg)
RCS (m²)

Purposes: comms

External: N2YO · Heavens-Above · Gunter

§ Orbital elements

Epoch: 2026-09-18T07:21:33.365088Z

Period
1,436.14 min
Inclination
4.4298°
Eccentricity
0.0008421
Mean motion
1.00268485 rev/d
Perigee alt
35,752.0 km
Apogee alt
35,823.0 km
Semi-major
42,165.7 km
B*
0.0000e+0
RAAN
75.9506°
Arg perigee
116.6505°
Mean anomaly
41.3306°
Rev number
2,906

§ Raw data

USA 2701 41744U 16052A   26261.30663617 -.00000354  00000+0  00000+0 0  99942 41744   4.4298  75.9506 0008421 116.6505  41.3306  1.00268485 29068

JSON: /api/v1/satellites/41744 · /tle

For live sub-satellite position, see the globe view (requires WebGL).

§ Visibility from observer

Set your observer location to see the next 7 days of passes ≥ 10°. The values pass through the URL so the page stays shareable.

No JS? Fill the form by hand. The geolocation button needs JavaScript.